Overview Statistics Trail Chart Weather Telemetry Raw packets
 

This is the latest recevied weather packets stored in our database for station/object N0KWA. If no packets are shown the sender has not sent any weather packets the latest 10 day(s).

<< 77 78 79 80 81 82 83 >>
Time Temp. Humidity Pressure Rain* Wind** Luminosity Snow
1787871055 27.22° C 92% 1015.4 hPa 0 mm - 6 W/m² -
1787870750 27.22° C 91% 1015.6 hPa 0 mm - 4 W/m² -
1787870444 27.22° C 90% 1015.6 hPa 0 mm - 6 W/m² -
1787870139 27.22° C 87% 1015.5 hPa 0 mm - 6 W/m² -
1787869833 27.78° C 87% 1015.5 hPa 0 mm - 7 W/m² -
1787869532 27.78° C 88% 1015.5 hPa 0 mm - 12 W/m² -
1787869227 27.78° C 89% 1015.4 hPa 0 mm - 12 W/m² -
1787868921 27.78° C 88% 1015.4 hPa 0 mm - 14 W/m² -
1787868621 27.78° C 90% 1015.4 hPa 0 mm - 12 W/m² -
1787868319 28.33° C 88% 1015.3 hPa 0 mm - 12 W/m² -
1787868014 28.33° C 87% 1015.4 hPa 0 mm - 12 W/m² -
1787867710 28.33° C 83% 1015.4 hPa 0 mm - 10 W/m² -
1787867404 28.33° C 82% 1015.4 hPa 0 mm - 14 W/m² -
1787867100 28.33° C 83% 1015.5 hPa 0 mm - 13 W/m² -
1787866794 28.33° C 81% 1015.5 hPa 0 mm - 11 W/m² -
1787866494 28.33° C 81% 1015.6 hPa 0 mm - 14 W/m² -
1787866193 28.33° C 85% 1015.8 hPa 0 mm - 16 W/m² -
1787865888 28.33° C 83% 1015.6 hPa 0 mm - 19 W/m² -
1787865584 28.33° C 84% 1015.6 hPa 0 mm - 18 W/m² -
1787865278 28.33° C 84% 1015.7 hPa 0 mm - 30 W/m² -
1787864975 28.33° C 84% 1016 hPa 0 mm - 26 W/m² -
1787864670 28.33° C 83% 1015.7 hPa 0 mm - 17 W/m² -
1787864369 28.33° C 80% 1016 hPa 0 mm - 19 W/m² -
1787864069 28.89° C 78% 1016 hPa 0 mm - 20 W/m² -
1787863767 28.89° C 79% 1016 hPa 0 mm - 25 W/m² -

* Rain latest hour (hover to see other rain measurements)
** Current wind speed in m/s (hover to see current wind gust speed)